Regional Weather Roundup
Issued by NWS Wakefield, VA

Home | Current Version | Previous Version | Text Only | Print | Product List | Glossary Off
Versions: 1 2 3 4 5 6 7 8 9 10 11 12 13 14 15 16 17 18 19 20 21 22 23 24 25 26 27 28 29 30 31 32 33 34 35 36 37 38 39 40 41 42 43 44 45 46 47 48 49 50

000
ASUS41 KAKQ 191616
RWRAKQ

REGIONAL WEATHER ROUNDUP
NATIONAL WEATHER SERVICE WAKEFIELD VA
1200 PM EDT SAT AUG 19 2017

Note: "fair" indicates few or no clouds below 12,000 feet with no
significant weather and/or obstructions to visibility. * = Denotes
station may not report precipitation (e.g., rain,snow,etc.),
thunder or fog.

VAZ042-051-052>054-056-191700-
NORTHERN VIRGINIA

CITY           SKY/WX    TMP DP  RH WIND       PRES   REMARKS
WASH NATIONAL  PTSUNNY   86  69  56 N13       29.93S
DULLES         MOSUNNY   83  67  58 W9        29.94R
FORT BELVOIR   MOSUNNY   85  65  50 NW14      29.93R
QUANTICO       MOSUNNY   86  69  56 NW9       29.94R
FREDERICKSBRG* MOSUNNY   86  67  52 NW9G16    29.94R
STAFFORD*      MOSUNNY   83  67  58 N8        29.98S
WARRENTON      SUNNY     86  63  45 NW6       29.95S
CULPEPER*      MOSUNNY   84  67  56 CALM      29.96S HAZE
MANASSAS*      SUNNY     86  68  54 NW12      29.94S
LEESBURG*      MOSUNNY   84  70  61 N9G18     29.95S
WINCHESTER     MOSUNNY   81  64  57 SW3       29.96S
FRONT ROYAL*   MOSUNNY   81  64  57 W3        29.96R
LURAY*         SUNNY     82  64  54 W6        29.98S
$$

VAZ048-049-060>072-079>083-191700-
CENTRAL AND SOUTH CENTRAL VIRGINIA

CITY           SKY/WX    TMP DP  RH WIND       PRES   REMARKS
RICHMOND       PTSUNNY   85  68  56 N12       29.95R
CHESTERFIELD*  PTSUNNY   85  67  54 N9        29.96R
PETERSBURG*    SUNNY     84  68  57 E9        29.95S
HANOVER        PTSUNNY   85  68  56 N6        29.96R
TAPPAHANNOCK*  PTSUNNY   84  65  52 N5        29.95R
QUINTON*       FAIR     N/A N/A N/A NE3       29.94R
CHARLOTTSVILLE SUNNY     86  63  45 N3        29.97R
GORDONSVILLE*  SUNNY     84  66  55 CALM      29.96S
ORANGE*        SUNNY     84  64  51 CALM      29.96R
LOUISA*        MOSUNNY   84  66  54 SW3       29.96R
BUMPASS*       FAIR      84  68  58 NE3       29.96S
FARMVILLE*     MOSUNNY   87  58  37 CALM      29.96S
CREWE*         FAIR      82  68  61 CALM      29.96S
FORT PICKETT*  CLOUDY   N/A N/A N/A E6        29.97S
CHASE CITY*    FAIR      83  67  57 W6        29.97F
CLARKSVILLE*   FAIR      84  68  58 N7        29.97S
SOUTH HILL*    SUNNY     84  73  69 NW3       30.01F
LAWRENCEVILLE* PTSUNNY   82  75  81 CALM      29.96S
EMPORIA*       PTSUNNY   81  73  78 CALM      29.96F
$$

VAZ088>098-191700-
SOUTHEAST VIRGINIA

CITY           SKY/WX    TMP DP  RH WIND       PRES   REMARKS
NORFOLK        CLOUDY    86  71  60 NE6       29.94R
VIRGINIA BEACH MOSUNNY   87  68  52 N5        29.93R
NORFOLK NAVAL  PTSUNNY   86  71  60 N7        29.96R
WEST POINT*    SUNNY     85  68  56 NE5       29.95S
SALUDA*        PTSUNNY   83  73  70 NW5       29.93S
NEWPORT NEWS   MOSUNNY   86  70  58 N7        29.94R
LANGLEY AFB    MOSUNNY   85  73  67 NE5       29.94R
FORT EUSTIS    SUNNY     90  72  54 N3        29.92R HX  97
WILLIAMSBURG*  SUNNY     88  75  66 CALM      29.95R HX  97
HR EXEC AP*    FAIR      88  72  58 NE5       29.91S
FRANKLIN*      CLOUDY    85  74  68 NE5       29.95R
US460-WAKEFLD  PTSUNNY   85  72  65 CALM      29.95R
$$

VAZ020-022-025-037-045-191700-
WEST CENTRAL AND SOUTHWEST VIRGINIA

CITY           SKY/WX    TMP DP  RH WIND       PRES   REMARKS
STAUNTON*      SUNNY     80  63  56 CALM      30.03R
WAYNESBORO*    SUNNY     80  64  58 W8        30.02S
HOT SPRINGS VA MOSUNNY   70  61  73 CALM      30.14F
LYNCHBURG      MOSUNNY   84  64  50 N8        30.00R
DANVILLE       SUNNY     86  67  52 NW9       29.99R
SOUTH BOSTON*  FAIR      84  65  51 W3        29.97F
MARTINSVILLE   MOSUNNY   83  66  57 NW8       30.04S
ROANOKE        MOSUNNY   83  62  49 NW8G17    30.04R
BLACKSBURG     MOSUNNY   77  63  61 CALM      30.11S
DUBLIN*        SUNNY     78  62  57 W5        30.09F
MARION*        CLOUDY    76  57  53 CALM      30.14R
HILLSVILLE*    SUNNY     74  58  56 CALM      30.10F
RICHLANDS*     FAIR      73  63  71 CALM      30.13S
WISE*          SUNNY     75  61  60 S3        30.12F
ABINGDON*      MOSUNNY   78  66  64 W3        30.10S
$$

MDZ021>025-VAZ099-100-191700-
SOUTHERN MARYLAND AND THE DELMARVA PENINSULA

CITY           SKY/WX    TMP DP  RH WIND       PRES   REMARKS
PATUXENT RIVER PTSUNNY   83  71  67 N5        29.93R
BAY BRIDGE APT MOSUNNY   82  70  65 NW3       29.93R
LEONARDTOWN    CLOUDY    82  68  61 CALM      29.95S
DOVER          MOSUNNY   84  70  61 N7        29.89S
GEORGETOWN     MOSUNNY   85  70  60 N3        29.92R
EASTON         NOT AVBL
CAMBRIDGE      SUNNY     84  70  61 NW7       29.92S
SALISBURY      PTSUNNY   85  71  63 N7        29.91S
OCEAN CITY     SUNNY     85  73  67 NE7       29.92R
WALLOPS ISLAND SUNNY     86  73  65 N6        29.92R
ACCOMACK*      SUNNY     85  74  69 NW6       29.92S
$$

NCZ012>017-030>032-191700-
NORTH CENTRAL AND EASTERN NORTH CAROLINA

CITY           SKY/WX    TMP DP  RH WIND       PRES   REMARKS
ROANOKE RAPIDS FAIR      86  73  66 N5        29.95R
RALEIGH        MOSUNNY   87  66  49 VRB6      29.98S
ELIZABETH CITY MOSUNNY   88  77  69 N5        29.93S HX 100
AHOSKIE*         N/A     84  74  71 CALM      29.94R
EDENTON*       MOSUNNY   88  75  66 CALM      29.94S HX  98
CURRITUCK*     MOSUNNY   86  74  67 CALM      29.94S
KILL DEVIL HLS PTSUNNY   84  75  73 CALM      29.93F
MANTEO         MOSUNNY   85  76  76 NW7       29.94F
CAPE HATTERAS  CLOUDY    88  81  79 VRB7G16   29.95S HX 106
TARBORO*       NOT AVBL
GOLDSBORO      SUNNY     88  72  58 VRB3      29.94S
WASHINGTON     SUNNY     88  73  61 W3        29.94F HX  96
GREENVILLE     SUNNY     88  72  58 W3        29.96S
NEW BERN       CLOUDY    88  78  72 VRB3      29.95S HX 101
WILMINGTON     MOSUNNY   91  78  65 W6        29.94F HX 106
$$

VAZ048-191700-
ELSEWHERE

CITY           SKY/WX    TMP DP  RH WIND       PRES   REMARKS
HARRISBURG PA  MOSUNNY   82  66  58 W7        29.91S
BALTIMORE      PTSUNNY   85  69  58 W6        29.92R
ANNAPOLIS      PTSUNNY   86  70  58 NW5       29.92R
ANDREWS AFB    SUNNY     84  67  55 N12       29.93R
PHILADELPHIA   MOSUNNY   85  62  46 W9        29.90R
HENDERSON NC   SUNNY     82  64  54 N6        29.97F
GREENSBORO     PTSUNNY   85  66  53 VRB6      30.01R
ROCKY MOUNT    SUNNY     87  72  60 N8        29.95S
$$

VAZ100-191700-
MARINE

STATION/POSITION TIME  TEMP    WIND        PRES    WAVE   SWELL
                       AIR SEA DIR/SP/G            HT/PER HT/PER
                 (UTC) (F)     (DEG/KT/KT) (MB)    (FT/S) (FT/S)
BRANDYWINE LGT   1542   80      10/  7/  8 1013.1R
CAPE MAY NJ      1548   85 79  340/  3/  6 1012.2R
LEWES DE         1542   79 77  340/  7/  8 1012.7R
15NM E FENWICK I 1550   78 78  320/  6/  8 1013.1R   3/ 6   2/ 6
OCEAN-CITY-INLET 1542   80 77   20/  4/  6 1013.2R
WACHAPREAGUE VA  1542   85 84   30/  7/ 10 1013.1R
THOMAS POINT MD  1600   80 80   90/  3/  4   N/A
GOOSES REEF MD   1600   81 81  340/  4/  6 1014.4    1
COVE POINT MD    1542   79     360/  5/  7 1014.2R
SOLOMONS ISLAND  1542   82 81  360/  5/  8   N/A
BISHOPS HEAD MD  1542   83 82   30/  4/  6 1013.4R
PINEY POINT MD   1542          310/  6/  7   N/A
POTOMAC MD       1600   82 82   10/  6/  8 1012.8    1
CAMBRIDGE MD     1542   85 82              1014.0R
LEWISETTA VA     1542   81 81  360/  5/  6 1013.5R
RAPPAHANNOCK LGT 1542          340/  9/ 11 1014.1R
STINGRAY PT      1600   82 82   30/  8/  8 1014.0    1/ 2
YORK RVR RNG VA  1542   82      10/  8/  9 1014.1R
YORKTOWN VA      1542   83 82   30/  7/  8 1013.4R
JAMESTOWN VA     1600      85  360/  2/  4   N/A     0
DOMINION TERM VA 1542   81     200/  4/  5 1013.8R
KIPTOPEKE VA     1542      80  320/ 12/ 13   N/A
CHES BAY BRIDGE  1542   82 80  350/  4/  5 1013.5R
CAPE HENRY VA    1542   82     310/  4/  6   N/A
WILLOUBY STN VA  1542   81      40/  7/  7 1013.9R
S CRANEY ISL VA  1542   83      10/  2/  3 1013.5R
CAPE HENRY BUOY  1600      79                N/A     2/ 6
1ST LANDING BUOY 1600   81 81              1013.7    1
64NM E OF VA BCH 1550   78 77  290/  8/  8 1014.0R   4/ 6   3/ 6
DUCK PIER NC     1542   81 70   60/  5/  6 1013.2F
44100 DUCK FRF   1505      80                N/A     2/ 5
44056 DUCK FRF   1600      80                N/A     2/ 8
OREGON INLET NC  1542   85 83  270/  7/  9 1013.7R
HATTERAS NC      1542   84 83  280/ 11/ 12 1014.1R
DIAMOND SHLS NC  1550   84 84  240/ 16/ 17 1014.1R   5/ 6   2/10
CAPE LOOKOUT NC  1600   86     230/  9/ 14 1014.0R
$$



USA.gov is the U.S. government's official web portal to all federal, state and local government web resources and services.